Station SWPM4 - 9076070 - S.W. Pier, MI Image indicating link to RSS feed of recent meteorological observations for station SWPM4


Conditions at SWPM4 as of
(7:54 pm EDT)
2354 GMT on 05/20/2024:
     

Click on the graph icon in the table below to see a time series plot of the last five days of that observation.

5-day plot - Wind Direction Wind Direction (WDIR): E ( 80 deg true )
5-day plot - Wind Speed Wind Speed (WSPD):2.1 m/s
5-day plot - Wind Gust Wind Gust (GST):2.1 m/s
5-day plot - Atmospheric Pressure Atmospheric Pressure (PRES):1010.3 mb
5-day plot - Air Temperature Air Temperature (ATMP): 17.2 °C
5-day plot - Water Temperature Water Temperature (WTMP): 9.0 °C
5-day plot - Wind Speed at 10 Meters Wind Speed at 10 meters (WSPD10M): 2 m/s
5-day plot - Wind Speed at 20 Meters Wind Speed at 20 meters (WSPD20M): 2 m/s
5-day plot -  Wind Speed, Wind Gust and Atmospheric Pressure Combined plot of Wind Speed, Gust, and Air Pressure
NOS Water Level Observation Network Water Level
Previous observations
TIME
(EDT)
5-day plot - Wind Direction
WDIR
 
5-day plot - Wind Speed
WSPD
m/s
5-day plot - Wind Gust
GST
m/s
5-day plot - Wave Height
WVHT
m
5-day plot - Dominant Wave Period
DPD
sec
5-day plot - Average Wave Period
APD
sec
5-day plot - Mean Wave Direction
MWD
 
5-day plot - Atmospheric Pressure
PRES
mb
5-day plot - Pressure Tendency
PTDY
mb
5-day plot - Air Temperature
ATMP
°C
5-day plot - Water Temperature
WTMP
°C
5-day plot - Dew Point
DEWP
°C
5-day plot - Salinity
SAL
psu
5-day plot - Visibility
VIS
km
5-day plot - Tide (above MLLW)
TIDE
m
2024-05-20 07:48 pm E 1.0 1.5----1010.5- 17.5 9.0----
2024-05-20 07:42 pm E 1.0 2.1----1010.6- 17.7 9.0----
2024-05-20 07:36 pm E 1.5 2.1----1010.5- 17.7 9.0----
2024-05-20 07:30 pmESE 1.0 1.5----1010.5- 17.4 9.0----
2024-05-20 07:24 pmESE 1.0 1.0----1010.6- 17.5 9.0----
2024-05-20 07:06 pmENE 1.0 1.5----1010.6- 17.2 9.0----
2024-05-20 07:00 pmENE 1.0 1.5----1010.6 -0.7- 9.0----
2024-05-20 06:54 pmENE 1.5 1.5----1010.5-- 9.0----
2024-05-20 06:48 pmENE 1.5 1.5----1010.5-- 9.1----
2024-05-20 06:42 pm NE 1.0 1.5----1010.5-- 9.1----
2024-05-20 06:36 pm E 1.5 2.1----1010.4-- 9.1----
2024-05-20 06:30 pm E 1.0 2.1----1010.4- 17.9 9.1----
2024-05-20 06:12 pm E 1.5 2.6----1010.4- 18.0 9.1----
2024-05-20 06:06 pmESE 1.0 2.1----1010.4- 18.0 9.1----
2024-05-20 06:00 pm SE 1.0 2.1----1010.4 -1.2 18.0 9.1----
2024-05-20 05:54 pm SE 1.5 2.1----1010.4- 18.1 9.1----
2024-05-20 05:48 pmESE 1.0 2.6----1010.4- 18.2 9.1----
2024-05-20 05:42 pmESE 1.5 2.6----1010.3- 18.1 9.1----
2024-05-20 05:36 pm E 1.5 2.6----1010.3- 17.9 9.1----
2024-05-20 05:12 pmESE 3.1 4.1----1010.5- 18.2 9.1----
2024-05-20 05:06 pm E 2.6 3.1----1010.5- 17.5 9.1----
2024-05-20 05:00 pm E 2.6 3.1----1010.6 -1.2 17.7 9.1----
2024-05-20 04:54 pm E 2.1 2.6----1010.6- 17.5 9.1----
2024-05-20 04:48 pm E 2.6 3.1----1010.6- 17.7 9.1----
2024-05-20 04:42 pm E 2.6 3.1----1010.7- 17.6 9.1----
2024-05-20 04:36 pmENE 2.1 3.1----1010.7- 17.8 9.1----
2024-05-20 04:30 pmESE 2.6 3.6----1010.7-------
2024-05-20 04:24 pmESE 1.0 2.1----1010.9-------
2024-05-20 04:18 pm E 0.5 1.0----1011.0- 17.4 9.1----
2024-05-20 04:12 pm E 0.5 1.0----1011.2- 17.6 9.2----
2024-05-20 04:06 pm- 0.0 0.5----1011.2- 17.6 9.1----
2024-05-20 04:00 pm E 1.0 1.0----1011.3 -1.7 17.4 9.2----
2024-05-20 03:54 pm- 0.0 1.5----1011.4- 17.2 9.2----
2024-05-20 03:48 pmNNE 1.5 2.1----1011.3- 17.0 9.2----
2024-05-20 03:42 pm NE 1.5 1.5----1011.2- 17.2 9.2----
2024-05-20 03:36 pmENE 1.5 1.5----1011.1- 17.1 9.2----
2024-05-20 03:30 pm E 1.5 2.1----1011.1- 17.0 9.3----
2024-05-20 03:24 pm E 1.5 2.1----1011.1- 17.0 9.1----
2024-05-20 03:18 pmENE 1.5 1.5----1011.4- 16.9 9.2----
2024-05-20 03:12 pm NE 1.5 1.5----1011.4- 16.9 9.2----
2024-05-20 03:06 pm NE 1.0 1.5----1011.6- 17.0 9.2----
2024-05-20 03:00 pmENE 1.0 1.5----1011.6 -1.5 16.9 9.3----
2024-05-20 02:54 pm E 1.5 1.5----1011.6- 17.5 9.2----
2024-05-20 02:48 pm- 0.0 1.5----1011.8- 17.6 9.2----
2024-05-20 02:42 pmESE 0.5 2.1----1011.9- 17.7 9.1----
2024-05-20 02:36 pm SE 1.5 2.1----1011.9- 17.7 9.2----
2024-05-20 02:30 pmESE 1.0 2.6----1011.7- 17.8 9.1----
2024-05-20 02:24 pm E 2.6 3.1----1011.3- 17.8 9.1----
2024-05-20 02:18 pm E 2.6 4.1----1011.3- 17.6 9.1----
2024-05-20 02:12 pm E 2.6 3.1----1011.3- 17.5 9.1----
2024-05-20 02:06 pm E 2.6 3.6----1011.6- 17.4 9.3----
2024-05-20 02:00 pm E 3.1 3.6----1011.8 -1.6 17.3 9.2----
2024-05-20 01:54 pm E 3.1 3.6----1011.9- 17.2 9.2----
2024-05-20 01:48 pm E 2.6 2.6----1012.2- 17.1 9.1----
2024-05-20 01:42 pm E 2.1 2.6----1012.3- 17.0 9.1----
2024-05-20 01:36 pm E 2.1 2.6----1012.6- 17.4 9.1----
2024-05-20 01:30 pm E 0.5 2.1----1012.9- 17.5 9.0----
2024-05-20 01:24 pmNNE 0.5 1.0----1013.0- 17.1 9.0----
2024-05-20 01:18 pm N 1.0 1.0----1013.1- 17.3 9.0----
2024-05-20 01:12 pm W 1.0 2.1----1013.1- 17.3 9.0----
2024-05-20 01:06 pm- 0.0 1.5----1013.1- 17.7 9.0----
2024-05-20 01:00 pm SE 1.0 3.1----1013.0 -0.9 17.3 9.0----
2024-05-20 12:54 pm E 2.6 3.1----1012.6- 17.4 9.0----
2024-05-20 12:48 pm SE 2.1 3.1----1012.9- 18.0 9.0----
2024-05-20 12:42 pm E 2.1 2.6----1013.0- 17.8 9.0----
2024-05-20 12:36 pm E 2.1 3.6----1012.9- 17.7 9.0----
2024-05-20 12:30 pmESE 2.1 3.1----1013.0- 17.9 9.0----
2024-05-20 12:18 pmESE 2.1 2.6----1013.1- 17.8 9.0----
2024-05-20 12:12 pm SE 1.5 2.6----1013.1- 17.7 9.0----
2024-05-20 12:06 pm SE 1.0 2.6----1013.1- 17.6 9.0----
2024-05-20 12:00 pmESE 2.6 3.6----1013.1 -0.8 17.3 9.0----
2024-05-20 11:54 amESE 2.1 3.1----1013.0- 17.1 9.0----
2024-05-20 11:48 amENE 2.1 3.1----1013.0- 16.4 9.0----
2024-05-20 11:42 am E 2.1 3.1----1013.1- 16.4 9.0----
2024-05-20 11:36 am E 2.6 4.1----1013.1- 16.3 9.0----
2024-05-20 11:30 am E 3.1 3.6----1013.1- 16.3 9.0----
2024-05-20 11:24 am E 2.6 3.6----1013.2- 16.6 9.0----
2024-05-20 11:18 am E 3.6 3.6----1013.2- 16.3 9.0----
2024-05-20 11:12 amESE 2.6 3.6----1013.3- 16.8 9.0----
2024-05-20 11:06 amESE 2.6 2.6----1013.4- 16.6 9.0----
2024-05-20 11:00 amENE 2.6 3.1----1013.4 -0.4 16.1 9.0----
2024-05-20 10:54 amENE 2.6 2.6----1013.5- 15.9 9.0----
2024-05-20 10:48 amENE 2.6 2.6----1013.6- 15.7 9.0----
2024-05-20 10:42 amENE 2.1 2.1----1013.7- 15.5 9.0----
2024-05-20 10:36 am E 1.0 1.5----1013.8- 15.5 9.0----
2024-05-20 10:30 amENE 1.0 1.5----1014.0- 15.4 9.0----
2024-05-20 10:24 am E 0.5 2.1----1014.0- 15.2 9.1----
2024-05-20 10:18 am E 1.0 1.5----1013.9- 14.9 9.0----
2024-05-20 10:12 am E 1.0 1.5----1013.9- 14.6 9.1----
2024-05-20 10:06 am E 1.5 1.5----1013.9- 14.2 9.0----
2024-05-20 10:00 am E 1.0 1.0----1013.9 +0.0 13.7 9.1----
2024-05-20 09:54 am- 0.0 0.5----1014.0- 13.4 9.1----
2024-05-20 09:48 am- 0.0 1.0----1014.1- 13.0 9.1----
2024-05-20 09:42 am NE 0.5 1.0----1014.1- 13.2 9.1----
2024-05-20 09:36 am E 0.5 0.5----1014.1- 13.5 9.1----
2024-05-20 09:30 am- 0.0 1.0----1014.1- 13.3 9.1----
2024-05-20 09:24 amENE 0.5 0.5----1014.0- 13.1 9.1----
2024-05-20 09:18 am- 0.0 1.0----1014.1- 13.0 9.1----
2024-05-20 09:12 am E 1.5 1.5----1014.0- 12.7 9.1----
2024-05-20 09:06 amENE 1.0 1.0----1013.9- 12.4 9.1----
2024-05-20 09:00 am E 1.0 1.0----1013.9 +0.3 12.3 9.1----
2024-05-20 08:54 amENE 1.0 1.5----1013.9- 12.2 9.1----
2024-05-20 08:48 am NE 1.5 2.6----1013.9- 12.0 9.1----
2024-05-20 08:42 amENE 2.6 3.1----1013.8- 12.0 9.1----
2024-05-20 08:36 amENE 2.6 3.1----1013.7- 12.1 9.1----
2024-05-20 08:30 amENE 2.1 2.6----1013.8- 12.1 9.1----
2024-05-20 08:24 am E 2.1 2.1----1013.8- 12.1 9.1----
2024-05-20 08:18 am E 1.5 2.1----1013.8- 11.8 9.1----
2024-05-20 08:12 am NE 2.6 2.6----1013.8- 11.6 9.2----
2024-05-20 08:06 amNNE 2.1 2.1----1013.9- 11.5 9.2----
2024-05-20 08:00 am NE 1.5 2.1----1013.8 +0.0 11.3 9.3----
2024-05-20 07:54 am NE 2.1 2.6----1013.7- 11.2 9.2----
2024-05-20 07:48 am NE 2.6 3.1----1013.6- 10.9 9.2----
2024-05-20 07:42 am NE 2.6 3.1----1013.5- 11.3 9.3----
2024-05-20 07:36 am E 2.6 2.6----1013.4- 11.9 9.2----
2024-05-20 07:30 amENE 1.5 2.1----1013.4- 11.8 9.2----
2024-05-20 07:24 amENE 1.0 1.5----1013.6- 11.8 9.3----
2024-05-20 07:18 amENE 1.5 2.1----1013.6- 11.7 9.2----
2024-05-20 07:12 amENE 1.5 2.1----1013.6- 11.8 9.1----
2024-05-20 07:06 amENE 1.0 1.5----1013.6- 12.0 9.1----
2024-05-20 07:00 am E 1.0 2.6----1013.7 -0.5 12.0 9.2----
2024-05-20 06:54 am SE 2.1 3.6----1013.7- 11.8 9.2----
2024-05-20 06:48 am SE 2.1 4.1----1013.8- 11.8 9.1----
2024-05-20 06:42 amESE 3.1 4.1----1013.6- 11.9 9.1----
2024-05-20 06:36 amESE 2.1 2.6----1013.7- 12.0 9.1----
2024-05-20 06:30 amESE 2.1 2.6----1013.7- 12.0 9.1----
2024-05-20 06:24 amESE 2.6 3.1----1013.6- 12.1 9.2----
2024-05-20 06:18 amESE 1.5 2.6----1013.6- 12.0 9.2----
2024-05-20 06:12 am SE 1.5 2.1----1013.7- 11.8 9.3----
2024-05-20 06:06 am- 0.0 2.1----1013.7- 11.7 9.2----
2024-05-20 06:00 am SE 2.1 2.6----1013.6 +0.0 11.9 9.2----
2024-05-20 05:54 am- 0.0 2.1----1013.6- 11.9 9.2----
2024-05-20 05:48 am E 2.1 2.6----1013.3- 11.7 9.2----
2024-05-20 05:42 amENE 2.1 2.6----1013.3- 11.4 9.1----
2024-05-20 05:36 amENE 1.5 2.1----1013.3- 11.0 9.2----
2024-05-20 05:30 amENE 1.5 1.5----1013.4- 11.8 9.2----
2024-05-20 05:24 amESE 1.0 1.5----1013.5- 11.8 9.2----
2024-05-20 05:18 amSSE 0.5 1.0----1013.6- 11.9 9.2----
2024-05-20 05:12 amESE 1.0 1.0----1013.5- 12.0 9.2----
2024-05-20 05:06 am SE 0.5 1.0----1013.6- 12.0 9.2----
2024-05-20 05:00 am- 0.0 1.0----1013.7 -0.7 12.1 9.2----
2024-05-20 04:54 am E 1.0 1.5----1013.5- 12.2 9.2----
2024-05-20 04:48 amESE 1.0 1.5----1013.6- 12.0 9.2----
2024-05-20 04:42 amESE 0.5 1.0----1013.6- 12.0 9.2----
2024-05-20 04:36 amESE 0.5 1.0----1013.6- 12.1 9.2----
2024-05-20 04:30 amESE 1.0 1.0----1013.7- 11.9 9.2----
2024-05-20 04:24 am E 0.5 1.0----1013.8- 11.9 9.2----
2024-05-20 04:18 am- 0.0 0.5----1014.0- 11.8 9.2----
2024-05-20 04:12 amWNW 0.5 1.0----1014.0- 11.7 9.2----
2024-05-20 04:06 am- 0.0 0.5----1014.1- 11.8 9.2----
2024-05-20 04:00 amSSW 0.5 0.5----1014.2 +0.4 11.9 9.2----
2024-05-20 03:54 amSSW 0.5 0.5----1014.2- 12.1 9.2----
2024-05-20 03:48 am- 0.0 0.5----1014.1- 12.1 9.2----
2024-05-20 03:42 am- 0.0 1.5----1014.0- 12.5 9.1----
2024-05-20 03:36 amESE 1.5 2.1----1013.8- 12.6 9.2----
2024-05-20 03:30 amESE 1.5 2.1----1013.9- 12.7 9.2----
2024-05-20 03:24 amESE 1.5 2.1----1013.9- 12.9 9.2----
2024-05-20 03:18 am E 1.5 2.1----1013.7- 13.0 9.2----
2024-05-20 03:12 amESE 1.5 2.1----1013.6- 12.9 9.2----
2024-05-20 03:06 amESE 1.0 2.1----1013.6- 13.0 9.2----
2024-05-20 03:00 am E 1.0 2.1----1013.7 +0.0 13.1 9.2----
2024-05-20 02:54 am E 1.5 2.1----1013.7- 13.0 9.2----
2024-05-20 02:48 amESE 1.0 1.0----1013.9- 12.7 9.2----
2024-05-20 02:42 am E 1.0 1.0----1014.0- 12.5 9.2----
2024-05-20 02:36 am E 1.0 1.5----1014.1- 12.6 9.2----
2024-05-20 02:30 am E 1.5 1.5----1014.1- 12.9 9.2----
2024-05-20 02:24 am E 1.0 1.5----1014.2- 12.6 9.2----
2024-05-20 02:18 amESE 1.0 1.5----1014.2- 12.3 9.2----
2024-05-20 02:12 am- 0.0 0.0----1014.2- 12.2 9.2----
2024-05-20 02:06 am- 0.0 0.0----1014.3- 12.4 9.2----
2024-05-20 02:00 am- 0.0 0.5----1014.4 +0.0 12.4 9.2----
2024-05-20 01:54 am- 0.0 0.5----1014.3- 12.5 9.2----
2024-05-20 01:48 am- 0.0 0.5----1014.2- 12.4 9.2----
2024-05-20 01:42 am- 0.0 1.0----1014.1- 12.4 9.2----
2024-05-20 01:36 am- 0.0 0.5----1014.0- 12.2 9.2----
2024-05-20 01:30 am- 0.0 0.5----1014.1- 12.1 9.2----
2024-05-20 01:24 am- 0.0 0.0----1014.1- 12.0 9.2----
2024-05-20 01:18 am-------1013.9-- 9.2----
2024-05-20 01:12 am-------1013.8-- 9.2----
2024-05-20 01:06 am-------1013.8-- 9.2----
2024-05-20 01:00 amNNW 0.5 1.0----1013.8 -0.3 12.2 9.2----
2024-05-20 12:54 amWNW 0.5 1.0----1013.7- 12.4 9.2----
2024-05-20 12:48 am- 0.0 0.0----1013.7- 12.5 9.2----
2024-05-20 12:42 am- 0.0 1.0----1013.8- 12.5 9.2----
2024-05-20 12:36 amENE 1.0 1.0----1013.8- 12.7 9.2----
2024-05-20 12:30 am- 0.0 0.5----1013.7- 12.6 9.2----
2024-05-20 12:24 am- 0.0 1.0----1013.9- 12.7 9.2----
2024-05-20 12:18 amWSW 1.0 1.0----1014.2- 12.9 9.2----
2024-05-20 12:12 am- 0.0 1.0----1014.0- 13.1 9.2----
2024-05-20 12:06 amENE 0.5 1.0----1013.7- 13.2 9.2----
2024-05-20 12:00 am E 1.0 1.0----1013.7 -0.4 13.2 9.2----
2024-05-19 11:54 pm- 0.0 0.5----1013.8- 12.9 9.2----
2024-05-19 11:48 pm- 0.0 0.0----1014.0- 12.9 9.2----
2024-05-19 11:42 pm- 0.0 0.0----1014.1- 12.9 9.2----
2024-05-19 11:36 pm- 0.0 0.0----1014.0- 12.8 9.2----
2024-05-19 11:30 pm- 0.0 0.5----1014.1- 12.8 9.2----
2024-05-19 11:24 pm- 0.0 1.0----1014.2- 12.8 9.2----
2024-05-19 11:18 pm N 1.0 1.5----1014.2-- 9.2----
2024-05-19 11:12 pmNNW 1.0 1.5----1014.4-- 9.2----
2024-05-19 11:06 pmNNW 1.0 2.1----1014.4-- 9.2----
2024-05-19 11:00 pm NW 1.5 2.1----1014.3 +0.0 13.1 9.2----
2024-05-19 10:54 pm N 1.5 2.1----1014.3- 12.7 9.2----
2024-05-19 10:48 pmWNW 1.0 1.5----1014.3- 13.9 9.2----
2024-05-19 10:42 pm NW 0.5 1.0----1014.4- 13.8 9.2----
2024-05-19 10:36 pmSSW 0.5 1.5----1014.6- 14.1 9.2----
2024-05-19 10:30 pm S 1.0 2.1----1014.6- 14.7 9.2----
2024-05-19 10:24 pmSSW 1.0 1.5----1014.6- 14.3 9.2----
2024-05-19 10:18 pmSSW 1.0 2.1----1014.4- 14.5 9.2----
2024-05-19 10:12 pm SW 2.1 2.6----1014.5- 15.0 9.2----
2024-05-19 10:06 pm SW 2.1 2.6----1014.3- 15.6 9.2----
2024-05-19 10:00 pm SW 2.1 2.6----1014.1- 15.2 9.2----
2024-05-19 09:54 pm SW 1.5 2.6----1014.0- 15.5 9.2----
2024-05-19 09:48 pm SW 2.1 2.6----1014.0- 15.8 9.2----
2024-05-19 09:42 pm SW 2.1 2.1----1013.9- 16.1 9.2----
2024-05-19 09:36 pm SW 2.1 3.1----1013.9- 16.4 9.2----
2024-05-19 09:30 pm SW 3.1 3.6----1014.1-- 9.2----
2024-05-19 09:24 pm SW 2.6 3.1----1014.0-- 9.2----
2024-05-19 09:18 pmWSW 2.6 3.1----1014.0-- 9.2----
2024-05-19 09:12 pm SW 3.1 3.1----1014.1-- 9.2----
2024-05-19 09:06 pmWSW 3.1 3.6----1014.0-- 9.2----
2024-05-19 09:00 pm W 3.1 4.1----1014.1-- 9.2----
2024-05-19 08:54 pm W 3.6 4.1----1014.2-- 9.2----
2024-05-19 08:48 pmWNW 3.1 3.6----1014.3- 18.1 9.2----
2024-05-19 08:42 pmWNW 2.6 3.1----1014.2- 18.0 9.2----
2024-05-19 08:36 pm NW 3.6 4.1----1014.2- 17.8 9.2----
2024-05-19 08:30 pmWNW 3.6 4.1----1014.3- 18.5 9.2----
2024-05-19 08:24 pm NW 3.1 4.1----1014.1- 18.4 9.2----
2024-05-19 08:18 pm---------- 9.2----
2024-05-19 08:12 pm---------- 9.2----
2024-05-19 08:06 pm---------- 9.2----
2024-05-19 08:00 pmWNW 3.6 5.1----1014.4 +0.0- 9.2----
2024-05-19 07:54 pm NW 4.6 5.1----1014.4-- 9.2----